Malmö Sturup Airport

Jump to: basic info | weather | frequencies | runways | comments

Related pages: nearby airports | nearby navaids | notams | map

Basic information (top)

Codes: MMX ESMS
Location: lon 55.536305, lat 13.376198, elev 236 ft / 72 m msl
Status: large_airport
Scheduled airline service: yes
Links: Wikipedia Mobile

Weather (top)

Current conditions (rec'd 2015/03/01 07:50Z):

ESMS 010750Z 16020KT CAVOK 03/M00 Q0999 R17/09//95

Airport forecast (rec'd 2015/03/01 06:33Z):

TAF ESMS 010456Z 0106/0206 18012KT 9999 SCT030 
      TEMPO 0106/0112 17015G25KT 
      BECMG 0110/0112 -RA BKN014 
      TEMPO 0112/0116 17015G28KT 4000 -RASN BKN006 
      BECMG 0116/0118 22015G25KT SCT030 
      TEMPO 0121/0124 SHRA BKN014 SCT030CB 
      BECMG 0200/0202 20010KT

Frequencies (top)

Verify before use: may be inaccurate or out of date.

APP: 135.9 MHz (MALMO CON)
ATIS: 129.275 MHz (ATIS)
TWR: 118.8 MHz (TWR)

Runways (top)

11/29: 2,615 x 75 ft (797 x 23 m) — paved — not lighted

17/35: 9,186 x 148 ft (2,800 x 45 m) — paved — lighted

Latest comments (top)

ESMS Malmö Airport NDBs withdrawn: The two NDBs at Malmö Airport (NS and ... [read]

More... (top)

See also NOTAMs and nearby airports and navaids, or visit the Malmö Sturup Airport page at the main OurAirports website..